"Pseudo-MPEC" for CEJ7UN2

Created 2026 Apr 17 11:35:05 UT using Find_Orb

Click here for an explanation of pseudo-MPECs

 
 Astrometry: 
     CEJ7UN2*1C2026 04 16.14322508 25 47.914+07 09 51.34   ~4G45 20.81GVNEOCPG96
     CEJ7UN2 1C2026 04 16.14958308 25 54.286+07 09 55.01   ~4G45 20.48GVNEOCPG96
     CEJ7UN2 1C2026 04 16.15471108 25 59.376+07 09 58.36   ~4G45 20.34GVNEOCPG96
     CEJ7UN2 1C2026 04 16.15985008 26 04.456+07 10 01.52   ~4G45 20.70GVNEOCPG96
     CEJ7UN2  C2026 04 16.18652808 26 30.798+07 10 16.11   ~4G55 20.5 GWNEOCPH01
     CEJ7UN2  C2026 04 16.19211808 26 36.350+07 10 19.49   ~4G55 20.5 GWNEOCPH01
     CEJ7UN2  C2026 04 16.20010808 26 44.294+07 10 24.20   ~4G55 20.3 GWNEOCPH01
     CEJ7UN2  C2026 04 16.20705508 26 51.211+07 10 28.38   ~4G55 20.2 GWNEOCPH01
     CEJ7UN2 1C2026 04 16.25182708 27 35.878+07 10 56.78   ~4G6Z 20.51GVNEOCPI52
     CEJ7UN2 1C2026 04 16.25353108 27 37.523+07 10 58.37   ~4G6Z 20.91GVNEOCPI52
     CEJ7UN2 1C2026 04 16.25523208 27 39.298+07 10 58.84   ~4G6Z 21.04GVNEOCPI52
     CEJ7UN2 1C2026 04 16.25693708 27 40.943+07 10 59.66   ~4G6Z 20.51GVNEOCPI52
     CEJ7UN2 1C2026 04 16.84564008 37 26.965+07 16 16.10   ~4GKZ 20.4 GXNEOCP033
     CEJ7UN2 1C2026 04 16.84676008 37 28.027+07 16 16.60   ~4GKZ 20.2 GXNEOCP033
     CEJ7UN2 1C2026 04 16.84788008 37 29.086+07 16 17.19   ~4GKZ 20.3 GXNEOCP033
     CEJ7UN2 0B2026 04 16.86073708 37 41.399+07 16 27.69   ~4HAK 20.6 GWNEOCP204
     CEJ7UN2 0C2026 04 16.87670908 37 57.037+07 16 43.95   ~4GLo 20.0 GXNEOCPR59
     CEJ7UN2 0B2026 04 16.87824708 37 58.228+07 16 36.79   ~4HAK       WNEOCP204
     CEJ7UN2 0C2026 04 16.88649208 38 06.358+07 16 48.64   ~4GLo 20.0 GXNEOCPR59
     CEJ7UN2 0C2026 04 16.89609108 38 15.466+07 16 53.60   ~4GLo 19.9 GXNEOCPR59
     CEJ7UN2 |C2026 04 16.97229008 39 31.900+07 18 43.30   ~4H0K 20.8 GVNEOCP807
     CEJ7UN2 |C2026 04 16.97560008 39 35.030+07 18 44.90   ~4H0K 21.3 GVNEOCP807
     CEJ7UN2 |C2026 04 16.97892008 39 38.150+07 18 46.60   ~4H0K 20.9 GVNEOCP807
     CEJ7UN2 KC2026 04 17.06106108 40 56.78 +07 18 12.7    ~4H25 21.0 GVNEOCPH21
     CEJ7UN2 KC2026 04 17.06394908 40 59.51 +07 18 14.2    ~4H25 20.8 GVNEOCPH21
     CEJ7UN2 KC2026 04 17.07011108 41 05.31 +07 18 16.6    ~4H25 20.4 GVNEOCPH21
     CEJ7UN2 1C2026 04 17.21510408 43 22.721+07 19 29.39   ~4H5Z       VNEOCPI52
     CEJ7UN2 1C2026 04 17.21593008 43 23.459+07 19 29.57   ~4H5Z       VNEOCPI52
     CEJ7UN2 1C2026 04 17.21676308 43 24.229+07 19 29.68   ~4H5Z 20.67GVNEOCPI52

Station data:
(033) Karl Schwarzschild Observatory, Tautenburg  (N50.980139 E11.711240)
   Germany.  Observer B. Stecklum. 1.34-m f/3 Schmidt + CCD.
(204) Schiaparelli Observatory  (N45.868292 E8.769720)  Italy.  Observer L.
   Buzzi. 0.84-m f/3.5 reflector + CCD.
(807) Cerro Tololo Observatory, La Serena  (S30.169133 W70.805900)  Chile.
   Observer R. Holmes. 0.61-m f/6.5 astrograph + CCD.
(G96) Mt. Lemmon Survey  (N32.442729 W110.788720)  US/Arizona.  Observer E.
   J. Christensen. Measurers T. Beuden, V. F. Carvajal, D. Fay, J. B.
   Fazekas, D. C. Fuls, A. R. Gibbs, A. D. Grauer, H. Gröller, J. K. Hogan,
   R. A. Kowalski, S. M. Larson, G. J. Leonard, D. Rankin, R. L. Seaman, F.
   C. Shelly, K. W. Wierzchoś. 1.5-m reflector + 10K CCD.
(H01) Magdalena Ridge Observatory, Socorro  (N33.984833 W107.189333)  US/New
   Mexico.  Observers W. H. Ryan, E. V. Ryan. Measurer W. H. Ryan. 2.4-m
   f/8.9 reflector + CCD.
(H21) Astronomical Research Observatory, Westfield  (N39.483054 W87.968270)
   US/Illinois.  Observer R. Holmes. Measurers S. Foglia, L. Buzzi, T.
   Linder, R. Holmes. 0.40-m f/5.32 astrograph + CCD.
(I52) Steward Observatory, Mt. Lemmon Station  (N32.442570 W110.788920)
   US/Arizona. Measurers T. Beuden, V. F. Carvajal, D. Fay, J. B. Fazekas, D.
   C. Fuls, A. R. Gibbs, A. D. Grauer, H. Gröller, J. K. Hogan, R. A.
   Kowalski, S. M. Larson, G. J. Leonard, D. Rankin, R. L. Seaman, F. C.
   Shelly, K. W. Wierzchoś. 1.0-m prime focus + CCD.
(R59) Camarasa Observatory, Astrocamp Nerpio  (N38.165429 W2.326580)  Spain.

Orbital elements:  CEJ7UN2
   Perihelion 2026 Feb 12.912067 +/- 0.112 TT = 21:53:22.6 (JD 2461084.412067)
Epoch 2026 Apr 17.0 TT = JDT 2461147.5   Earth MOID: 0.0345   Ve: 0.0091
M  45.622829393 +/- 0.27            (J2000 ecliptic)             AutoNEOCP
n   0.723162537 +/- 0.00304         Peri.  248.438228 +/- 0.16
a   1.229264772 +/- 0.00345         Node   209.628483 +/- 0.031
e   0.47980287 +/- 0.00176          Incl.    7.831912 +/- 0.031
P   1.363/497.804d         H 22.61  G  0.15   U  8.9
q 0.639460001 +/- 0.00106    Q 1.819069543 +/- 0.00707
From 29 observations 2026 Apr. 16-17 (25.8 hr); mean residual 0".36
Residuals in arcseconds: 
260416 G96  .64-  .14-    260416 I52  .51+  .25+    260416 807  .23+  .07-    
260416 G96  .28+  .41-    260416 I52  .29-  .09+    260416 807  .23+  .09-    
260416 G96  .29+  .23-    260416 033  .47+  .06-    260416 807  .04-  .01-    
260416 G96  .01-  .23-    260416 033  .25+  .12-    260417 H21  .08-  .37-    
260416 H01  .15+  .07-    260416 033  .02-  .08-    260417 H21  .01+  .22-    
260416 H01  .06+  .05-    260416 204  .04-  .27-    260417 H21  .15-  .69-    
260416 H01  .03+  .12-    260416 R59  .15+  .61+    260417 I52  .48+  .11+    
260416 H01  .12+  .08-    260416 204  .34+  .33+    260417 I52  .07-  .06-    
260416 I52  .10+  .17+    260416 R59  .26-  .57+    260417 I52  .23-  .30-    
260416 I52  .68-  .77+    260416 R59  1.3-  .92+    

Ephemerides (geocentric):
Date (UTC) HH   RA             Dec           delta  r     elong  mag " sig PA
---- --------  ------------   ------------  ------ ------ -----  --- --------
2026 04 17 12  08 47 54.737   +07 21 58.61  .13917 1.0485 105.0 20.8 .087  42
2026 04 17 13  08 48 33.783   +07 22 15.15  .13936 1.0488 105.1 20.8 .087  43
2026 04 17 14  08 49 12.727   +07 22 31.41  .13956 1.0492 105.2 20.8 .086  44
2026 04 17 15  08 49 51.570   +07 22 47.39  .13975 1.0495 105.3 20.8 .085  45
2026 04 17 16  08 50 30.311   +07 23 03.10  .13995 1.0499 105.5 20.8 .084  46
2026 04 17 17  08 51 08.950   +07 23 18.53  .14015 1.0502 105.6 20.8 .084  47
2026 04 17 18  08 51 47.487   +07 23 33.69  .14034 1.0506 105.7 20.8 .083  48
2026 04 17 19  08 52 25.921   +07 23 48.58  .14054 1.0509 105.8 20.8 .083  49
2026 04 17 20  08 53 04.254   +07 24 03.20  .14074 1.0513 105.9 20.8 .083  50
2026 04 17 21  08 53 42.484   +07 24 17.55  .14095 1.0516 106.0 20.8 .083  51
2026 04 17 22  08 54 20.612   +07 24 31.63  .14115 1.0520 106.1 20.8 .083  53
2026 04 17 23  08 54 58.637   +07 24 45.45  .14135 1.0523 106.2 20.8 .083  54
2026 04 18 00  08 55 36.559   +07 24 59.00  .14156 1.0526 106.4 20.8 .084  55
2026 04 18 01  08 56 14.379   +07 25 12.30  .14176 1.0530 106.5 20.8 .085  57
2026 04 18 02  08 56 52.096   +07 25 25.33  .14197 1.0533 106.6 20.8 .085  58
2026 04 18 03  08 57 29.710   +07 25 38.10  .14218 1.0537 106.7 20.8 .086  59
2026 04 18 04  08 58 07.221   +07 25 50.61  .14239 1.0540 106.8 20.8 .087  61
2026 04 18 05  08 58 44.629   +07 26 02.87  .14260 1.0544 106.9 20.8 .088  62
2026 04 18 06  08 59 21.934   +07 26 14.87  .14281 1.0547 107.0 20.8 .090  64
2026 04 18 07  08 59 59.136   +07 26 26.62  .14302 1.0551 107.1 20.8 .091  65
2026 04 18 08  09 00 36.235   +07 26 38.11  .14323 1.0554 107.2 20.8 .093  66
2026 04 18 09  09 01 13.230   +07 26 49.35  .14345 1.0558 107.3 20.8 .095  68
2026 04 18 10  09 01 50.123   +07 27 00.35  .14366 1.0561 107.4 20.8 .097  69
2026 04 18 11  09 02 26.912   +07 27 11.10  .14388 1.0564 107.6 20.8 .099  70
2026 04 18 12  09 03 03.599   +07 27 21.60  .14409 1.0568 107.7 20.8 .102  72
2026 04 18 13  09 03 40.182   +07 27 31.85  .14431 1.0571 107.8 20.8 .104  73
2026 04 18 14  09 04 16.662   +07 27 41.86  .14453 1.0575 107.9 20.8 .107  74
2026 04 18 15  09 04 53.038   +07 27 51.63  .14475 1.0578 108.0 20.8 .110  75
2026 04 18 16  09 05 29.312   +07 28 01.16  .14497 1.0582 108.1 20.8 .113  76
2026 04 18 17  09 06 05.482   +07 28 10.45  .14519 1.0585 108.2 20.8 .116  77
2026 04 18 18  09 06 41.549   +07 28 19.51  .14541 1.0589 108.3 20.8 .119  78
2026 04 18 19  09 07 17.513   +07 28 28.32  .14564 1.0592 108.4 20.8 .122  79
2026 04 18 20  09 07 53.374   +07 28 36.90  .14586 1.0595 108.5 20.8 .126  80
2026 04 18 21  09 08 29.132   +07 28 45.25  .14609 1.0599 108.6 20.8 .130  81
2026 04 18 22  09 09 04.787   +07 28 53.37  .14631 1.0602 108.7 20.8 .133  82
2026 04 18 23  09 09 40.338   +07 29 01.26  .14654 1.0606 108.8 20.8 .137  83
2026 04 19 00  09 10 15.787   +07 29 08.91  .14677 1.0609 108.9 20.8 .142  83
2026 04 19 01  09 10 51.133   +07 29 16.34  .14700 1.0613 109.0 20.8 .146  84
2026 04 19 02  09 11 26.377   +07 29 23.55  .14723 1.0616 109.1 20.8 .150  85
2026 04 19 03  09 12 01.517   +07 29 30.53  .14746 1.0620 109.2 20.8 .155  85
2026 04 19 04  09 12 36.555   +07 29 37.29  .14769 1.0623 109.3 20.8 .159  86
2026 04 19 05  09 13 11.490   +07 29 43.83  .14792 1.0626 109.4 20.8 .164  86
2026 04 19 06  09 13 46.323   +07 29 50.14  .14815 1.0630 109.5 20.8 .169  87
2026 04 19 07  09 14 21.053   +07 29 56.24  .14839 1.0633 109.6 20.8 .174  88
2026 04 19 08  09 14 55.681   +07 30 02.12  .14862 1.0637 109.7 20.8 .179  88
2026 04 19 09  09 15 30.206   +07 30 07.79  .14886 1.0640 109.8 20.8 .184  88
2026 04 19 10  09 16 04.630   +07 30 13.24  .14910 1.0644 109.9 20.8 .190  89
2026 04 19 11  09 16 38.951   +07 30 18.48  .14933 1.0647 110.0 20.8 .195  89